Precipitable_Water
0.62 0.62 0.64 0.64 0.64 0.64 0.62 0.61 0.63 0.63 0.61 0.55 0.52 0.47 0.43 0.45 0.42 0.37 0.20 0.29 0.38 0.52 0.79 0.74 0.88 1.08 1.23 1.26 1.45 1.55 1.17 1.02 1.10 1.12 1.19 1.35 1.18 1.29 1.25 1.07 1.09 1.16 1.08 1.23 1.39
0.66 0.62 0.61 0.62 0.63 0.62 0.61 0.59 0.60 0.60 0.62 0.57 0.52 0.50 0.45 0.45 0.35 0.25 0.26 0.27 0.37 0.58 0.62 0.59 0.70 0.98 1.02 1.14 1.15 1.25 1.09 1.13 1.32 1.32 1.24 1.34 1.28 1.20 1.10 1.05 1.05 1.10 1.23 1.33 1.36
0.64 0.63 0.62 0.59 0.60 0.60 0.58 0.57 0.58 0.60 0.60 0.57 0.53 0.51 0.49 0.47 0.31 0.35 0.52 0.37 0.39 0.55 0.51 0.57 0.70 0.94 0.93 1.02 1.09 1.13 1.10 1.31 1.37 1.40 1.37 1.39 1.34 1.34 1.05 0.87 0.99 1.04 1.11 1.22 1.28
0.64 0.62 0.61 0.60 0.58 0.57 0.56 0.58 0.60 0.60 0.61 0.58 0.52 0.51 0.48 0.45 0.24 0.42 0.59 0.42 0.45 0.51 0.44 0.49 0.64 0.85 0.86 0.90 1.08 1.03 1.25 1.29 1.44 1.47 1.41 1.35 1.42 1.17 1.15 1.04 1.06 1.16 1.20 1.17 1.23
0.65 0.62 0.58 0.55 0.54 0.52 0.55 0.58 0.61 0.62 0.62 0.61 0.52 0.52 0.46 0.32 0.34 0.57 0.67 0.45 0.40 0.39 0.39 0.46 0.60 0.83 0.82 0.84 0.93 0.95 1.13 1.24 1.44 1.50 1.49 1.48 1.38 1.26 1.18 1.22 1.14 1.16 1.17 1.22 1.31
0.64 0.61 0.56 0.52 0.50 0.51 0.57 0.59 0.60 0.63 0.64 0.60 0.51 0.54 0.45 0.30 0.62 0.65 0.57 0.44 0.32 0.35 0.35 0.52 0.71 0.82 0.74 0.85 0.87 1.01 1.03 1.14 1.32 1.43 1.47 1.32 1.40 1.44 1.44 1.33 1.13 1.16 1.17 1.25 1.30
0.59 0.56 0.53 0.49 0.49 0.54 0.57 0.58 0.60 0.64 0.68 0.59 0.56 0.60 0.42 0.40 0.65 0.60 0.48 0.38 0.30 0.29 0.33 0.44 0.72 0.70 0.68 0.86 1.02 0.99 0.88 1.01 1.10 1.29 1.39 1.48 1.27 1.27 1.53 1.41 1.14 1.17 1.20 1.27 1.33
0.50 0.49 0.48 0.47 0.47 0.53 0.55 0.56 0.60 0.68 0.68 0.64 0.69 0.58 0.32 0.54 0.65 0.55 0.54 0.37 0.30 0.27 0.31 0.42 0.74 0.67 0.77 1.09 0.98 0.88 0.86 0.73 0.96 1.10 1.37 1.44 1.13 1.41 1.51 1.40 1.20 1.17 1.16 1.19 1.29
0.48 0.48 0.47 0.45 0.46 0.51 0.53 0.63 0.69 0.68 0.67 0.72 0.63 0.55 0.40 0.62 0.47 0.52 0.56 0.45 0.34 0.27 0.28 0.44 0.55 0.62 0.82 0.75 0.68 0.74 0.68 0.75 0.87 1.09 1.12 1.26 1.16 1.42 1.51 1.50 1.41 1.21 1.16 1.16 1.22
0.52 0.50 0.47 0.45 0.48 0.51 0.61 0.67 0.74 0.76 0.72 0.70 0.60 0.46 0.46 0.43 0.48 0.51 0.51 0.36 0.30 0.24 0.21 0.33 0.54 0.50 0.60 0.67 0.50 0.54 0.55 0.70 0.85 0.99 1.02 1.01 1.16 1.39 1.46 1.45 1.45 1.35 1.16 1.12 1.16
0.55 0.51 0.47 0.45 0.50 0.59 0.63 0.60 0.53 0.49 0.53 0.36 0.36 0.35 0.40 0.48 0.48 0.43 0.43 0.24 0.23 0.21 0.17 0.29 0.34 0.36 0.50 0.67 0.64 0.60 0.59 0.65 0.83 1.09 0.92 0.90 1.02 1.26 1.44 1.47 1.43 1.45 1.30 1.08 1.16
0.56 0.51 0.46 0.45 0.53 0.64 0.66 0.48 0.50 0.53 0.41 0.48 0.45 0.45 0.49 0.53 0.39 0.45 0.41 0.33 0.19 0.18 0.22 0.26 0.25 0.44 0.58 0.68 0.57 0.54 0.62 0.63 0.79 0.94 0.89 0.85 0.91 1.24 1.35 1.46 1.44 1.40 1.32 1.15 1.15
0.57 0.53 0.46 0.45 0.57 0.65 0.57 0.55 0.65 0.64 0.45 0.45 0.49 0.45 0.45 0.49 0.38 0.38 0.45 0.38 0.26 0.21 0.20 0.21 0.29 0.52 0.48 0.49 0.49 0.54 0.58 0.65 0.67 0.82 0.89 0.83 0.80 1.03 1.26 1.45 1.50 1.44 1.36 1.24 1.12
0.58 0.55 0.47 0.50 0.56 0.57 0.53 0.63 0.68 0.67 0.41 0.41 0.46 0.47 0.47 0.45 0.36 0.44 0.49 0.43 0.31 0.27 0.25 0.26 0.41 0.41 0.43 0.42 0.49 0.48 0.62 0.69 0.66 0.63 0.62 0.87 0.58 0.87 1.07 1.23 1.36 1.30 1.37 1.19 1.14
0.57 0.56 0.48 0.56 0.56 0.50 0.59 0.67 0.68 0.58 0.26 0.44 0.44 0.58 0.49 0.41 0.38 0.38 0.47 0.38 0.30 0.29 0.28 0.30 0.34 0.38 0.40 0.43 0.48 0.54 0.65 0.69 0.67 0.61 0.62 0.70 0.68 0.85 1.01 1.09 1.22 1.33 1.30 1.21 1.10
0.56 0.55 0.50 0.48 0.57 0.58 0.70 0.68 0.61 0.36 0.27 0.41 0.45 0.43 0.42 0.44 0.38 0.36 0.38 0.41 0.35 0.30 0.29 0.37 0.36 0.41 0.41 0.48 0.50 0.66 0.61 0.65 0.64 0.60 0.42 0.64 0.68 0.77 0.85 1.01 1.18 1.36 1.40 1.26 1.16
0.55 0.52 0.48 0.53 0.52 0.71 0.66 0.58 0.37 0.25 0.37 0.37 0.41 0.46 0.43 0.41 0.35 0.36 0.33 0.32 0.30 0.27 0.25 0.28 0.29 0.32 0.39 0.36 0.46 0.53 0.48 0.40 0.37 0.41 0.42 0.68 0.68 0.79 0.93 1.02 1.12 1.28 1.36 1.38 1.38
0.53 0.51 0.53 0.62 0.68 0.69 0.61 0.44 0.27 0.29 0.31 0.40 0.43 0.45 0.41 0.41 0.39 0.34 0.31 0.30 0.35 0.32 0.29 0.25 0.23 0.28 0.37 0.36 0.41 0.43 0.45 0.38 0.34 0.43 0.54 0.67 0.59 0.82 0.93 1.05 1.12 1.20 1.33 1.44 1.49
0.51 0.49 0.53 0.66 0.74 0.69 0.51 0.33 0.29 0.31 0.37 0.36 0.42 0.41 0.41 0.43 0.43 0.33 0.32 0.36 0.41 0.39 0.34 0.26 0.31 0.39 0.48 0.44 0.47 0.44 0.40 0.53 0.52 0.62 0.53 0.60 0.73 0.90 0.85 0.99 1.12 1.18 1.26 1.39 1.49
0.42 0.46 0.55 0.74 0.78 0.64 0.44 0.33 0.35 0.40 0.41 0.37 0.35 0.38 0.38 0.42 0.41 0.35 0.34 0.41 0.43 0.44 0.43 0.37 0.38 0.50 0.59 0.62 0.55 0.60 0.61 0.46 0.46 0.44 0.44 0.52 0.58 0.66 0.68 0.85 1.03 1.10 1.25 1.38 1.55
0.43 0.37 0.63 0.75 0.73 0.56 0.37 0.37 0.37 0.42 0.45 0.36 0.34 0.38 0.41 0.43 0.45 0.39 0.41 0.47 0.50 0.48 0.47 0.45 0.41 0.47 0.59 0.59 0.64 0.55 0.53 0.53 0.56 0.55 0.51 0.50 0.64 0.69 0.80 0.85 0.99 1.07 1.23 1.42 1.54
0.39 0.31 0.65 0.71 0.50 0.51 0.42 0.42 0.41 0.41 0.42 0.39 0.39 0.41 0.42 0.44 0.46 0.45 0.43 0.49 0.52 0.50 0.45 0.47 0.43 0.42 0.50 0.58 0.68 0.75 0.72 0.59 0.47 0.49 0.60 0.63 0.55 0.88 0.87 0.97 1.02 1.06 1.20 1.39 1.54
0.42 0.43 0.66 0.64 0.43 0.45 0.48 0.41 0.45 0.41 0.39 0.35 0.33 0.34 0.43 0.43 0.43 0.46 0.49 0.52 0.55 0.51 0.50 0.49 0.42 0.38 0.39 0.46 0.54 0.54 0.60 0.61 0.62 0.74 0.55 0.49 0.54 0.94 0.96 1.00 1.08 1.12 1.21 1.36 1.52
0.47 0.40 0.51 0.57 0.57 0.52 0.47 0.42 0.43 0.47 0.42 0.36 0.37 0.38 0.38 0.38 0.41 0.46 0.46 0.53 0.54 0.55 0.52 0.52 0.45 0.40 0.41 0.48 0.63 0.49 0.56 0.57 0.52 0.45 0.45 0.48 0.55 0.74 0.89 0.92 1.03 1.13 1.26 1.38 1.47
0.51 0.44 0.60 0.43 0.45 0.49 0.54 0.51 0.43 0.39 0.45 0.43 0.41 0.39 0.37 0.35 0.37 0.37 0.43 0.49 0.51 0.51 0.51 0.49 0.47 0.50 0.51 0.50 0.49 0.54 0.58 0.58 0.53 0.57 0.49 0.68 0.63 0.74 0.86 0.91 0.98 1.13 1.23 1.34 1.44
0.55 0.49 0.62 0.61 0.58 0.53 0.55 0.52 0.47 0.45 0.41 0.41 0.41 0.41 0.41 0.36 0.35 0.40 0.40 0.41 0.43 0.51 0.48 0.49 0.47 0.50 0.53 0.57 0.59 0.51 0.55 0.54 0.67 0.59 0.61 0.64 0.64 0.90 1.00 1.04 1.01 1.07 1.21 1.29 1.41
0.72 0.69 0.56 0.56 0.57 0.51 0.50 0.50 0.52 0.51 0.43 0.44 0.45 0.45 0.43 0.46 0.46 0.44 0.41 0.45 0.49 0.45 0.47 0.43 0.44 0.43 0.42 0.57 0.53 0.48 0.58 0.60 0.64 0.62 0.62 0.57 0.85 0.92 0.92 0.93 0.97 1.05 1.13 1.21 1.36
Wind_Speed
8 8 8 8 8 8 9 9 9 9 8 7 7 6 6 7 7 8 8 7 8 8 8 7 6 5 4 2 3 2 4 5 5 6 7 7 6 4 4 7 6 4 6 13 14
8 8 8 9 9 9 9 10 10 10 9 8 7 7 6 6 7 9 8 9 9 10 10 9 7 6 4 3 3 2 3 3 4 4 9 7 4 5 5 7 7 8 10 14 14
9 9 9 9 9 9 10 10 10 10 10 9 8 7 7 6 7 6 8 10 11 11 10 10 8 7 5 4 3 2 2 2 3 5 9 8 6 5 8 6 8 9 13 14 13
10 9 9 9 9 10 10 10 11 11 10 8 7 7 6 5 5 7 8 11 11 11 11 10 10 8 5 5 4 4 3 1 3 6 6 11 5 6 6 4 6 12 13 14 13
10 10 10 10 10 10 11 11 11 11 10 8 7 5 4 5 4 6 9 12 12 11 12 11 11 9 7 5 5 4 3 2 3 4 8 7 6 7 6 5 11 13 14 13 11
10 10 10 11 11 11 11 11 12 11 10 8 6 3 3 3 5 5 9 12 12 12 12 12 11 8 6 6 6 5 4 4 4 3 7 8 7 6 5 9 12 13 13 12 11
11 11 11 12 12 12 12 12 12 11 9 7 4 2 3 1 2 2 7 10 12 13 13 13 11 11 8 7 7 6 5 4 5 4 4 8 6 9 9 9 12 13 12 11 11
12 12 12 13 12 12 12 12 11 9 7 5 3 3 2 2 3 3 4 8 12 12 13 13 13 10 10 7 8 8 8 7 5 7 6 9 7 14 14 10 13 14 13 12 11
13 13 13 13 12 12 12 12 10 7 6 5 4 4 2 3 4 6 6 7 10 12 12 14 14 12 12 13 10 10 7 7 6 8 7 10 5 13 14 14 13 14 14 13 12
14 14 14 13 12 12 12 10 8 7 6 5 5 4 3 2 3 4 6 6 8 11 12 15 15 15 14 15 12 11 10 8 7 8 9 9 6 10 15 17 16 15 15 14 13
15 15 14 13 11 11 11 8 7 6 5 5 4 2 0 1 1 3 4 5 7 11 12 16 16 18 18 17 10 8 8 8 6 7 9 9 9 10 16 16 19 18 17 17 15
16 15 14 12 10 9 8 8 7 6 4 3 2 1 1 2 0 3 4 5 8 10 11 14 18 18 12 14 13 12 10 8 7 8 9 9 10 10 12 18 23 22 19 19 18
17 16 14 11 9 7 7 6 5 5 3 2 2 2 2 0 2 2 4 3 6 8 13 15 16 13 16 16 16 15 12 10 8 10 11 9 12 11 11 12 20 24 21 21 20
17 16 13 10 7 6 5 5 5 4 2 2 0 1 0 2 2 1 3 3 4 6 10 13 11 16 17 17 16 15 13 12 10 10 8 8 7 12 14 15 17 25 23 22 22
17 16 12 8 7 6 5 7 4 4 3 1 1 0 1 3 1 1 2 2 2 5 8 7 12 16 17 16 15 10 11 13 11 12 12 11 9 5 14 17 18 25 25 24 23
18 15 11 7 6 6 6 6 4 5 1 1 1 1 2 1 1 2 1 2 1 3 8 5 9 12 15 16 15 11 12 12 13 13 14 10 10 4 8 16 18 23 28 26 24
17 14 9 6 5 4 5 4 5 5 2 1 1 2 2 1 1 2 3 2 2 3 6 8 12 12 12 14 15 15 14 12 11 12 11 7 10 2 5 8 13 19 28 28 26
17 12 8 7 5 5 4 5 5 2 3 2 3 2 3 1 1 2 2 3 2 4 4 7 9 13 14 16 13 17 17 12 9 9 7 9 10 7 2 5 13 17 21 28 31
15 10 8 6 6 5 5 7 3 3 3 3 3 3 2 2 3 4 3 0 2 2 4 5 5 8 9 13 13 15 16 14 10 11 10 9 8 8 4 4 6 13 17 23 35
13 10 8 8 6 6 6 5 4 4 4 5 5 4 3 2 4 4 4 1 1 1 3 2 4 7 8 9 13 12 13 13 14 8 9 8 7 3 5 5 4 9 12 19 33
13 11 9 9 8 7 7 3 5 5 5 5 4 4 3 3 4 4 4 3 2 1 3 4 5 5 9 11 11 12 14 14 10 11 7 7 5 3 4 5 5 6 8 12 29
14 13 11 11 11 9 9 5 4 6 5 5 5 5 5 3 5 6 5 4 4 4 5 3 6 6 7 6 9 10 13 16 11 13 10 8 8 4 3 3 3 2 6 7 21
14 14 13 14 13 12 9 9 7 7 8 7 6 6 6 5 6 6 5 5 5 6 6 5 8 9 11 10 11 11 12 15 14 8 13 13 4 6 3 3 2 2 3 7 14
13 13 14 16 15 13 13 13 11 10 9 7 6 6 7 9 8 7 8 6 6 6 7 9 10 12 10 6 6 10 12 15 17 15 14 12 10 6 4 4 5 5 4 5 10
14 13 13 14 19 18 14 11 14 11 11 10 8 9 7 7 8 9 9 9 8 7 8 8 11 11 10 11 12 10 8 9 13 11 10 3 7 7 7 8 6 7 6 6 7
15 15 16 16 16 19 17 17 17 15 13 13 12 10 8 7 7 7 9 9 9 7 8 8 9 12 9 9 11 15 13 13 12 9 10 10 9 6 7 7 6 5 6 7 9
16 17 17 17 19 19 20 21 18 15 15 14 14 11 11 9 7 7 7 8 8 10 8 9 8 10 11 11 12 15 14 13 13 13 13 12 8 9 9 8 7 6 6 7 6
Wind_Direction
356 353 351 349 348 346 344 341 336 331 323 314 305 292 276 265 254 231 228 220 212 203 197 192 194 193 197 180 161 159 161 139 166 167 173 161 154 129 117 133 131 124 133 143 147
357 352 348 345 343 341 339 337 335 332 324 315 304 292 280 267 247 235 228 219 210 201 200 196 195 193 202 197 184 212 171 166 184 165 185 161 159 151 145 140 135 124 126 140 148
355 351 348 347 345 344 343 341 339 335 327 316 304 292 279 262 238 232 232 214 205 201 207 208 204 206 208 202 185 177 187 147 173 177 172 175 160 157 148 152 151 144 143 147 151
356 356 355 353 350 347 344 342 340 338 334 325 311 294 275 238 239 241 234 207 202 205 203 204 203 208 206 193 181 160 123 109 150 169 156 171 166 152 147 119 154 147 147 145 150
358 357 354 351 348 345 343 341 340 339 336 330 320 305 261 241 259 262 218 205 203 204 205 205 204 208 209 201 200 189 172 135 149 159 181 176 168 163 144 135 142 143 147 148 147
355 353 350 347 345 343 341 339 339 337 336 333 325 309 265 245 268 251 207 204 207 207 207 208 211 220 213 215 235 201 176 166 170 150 172 179 192 180 170 152 152 152 152 153 149
354 350 347 344 342 341 340 338 335 335 337 339 338 312 294 290 240 219 209 210 210 213 213 213 213 222 217 210 188 183 177 187 208 209 187 186 211 212 202 174 167 168 164 160 155
353 349 346 343 341 339 338 337 334 333 334 337 337 317 328 253 243 226 203 211 214 216 218 216 216 221 224 199 211 224 223 229 227 217 206 216 233 218 202 194 178 175 172 170 164
349 346 343 341 340 339 338 338 339 336 334 324 306 298 312 275 256 236 232 227 215 216 217 216 217 221 213 213 215 219 235 232 224 226 222 222 233 208 201 203 201 187 183 181 174
344 341 339 338 337 339 340 340 347 341 322 316 304 280 261 297 280 230 229 219 218 210 212 215 218 219 220 220 231 216 229 235 228 221 225 228 236 209 208 203 211 204 191 187 185
342 338 336 335 335 339 343 341 334 343 335 335 329 307 224 297 281 218 219 213 206 215 217 215 219 220 214 222 234 226 237 239 223 217 224 234 240 218 214 221 207 207 202 193 193
340 338 335 332 332 337 344 347 357 348 357 17 9 329 279 298 295 202 218 243 226 220 219 217 225 217 219 221 225 229 227 223 225 226 248 241 238 223 229 225 213 208 208 199 195
338 336 332 329 327 331 336 349 353 357 339 44 25 9 21 265 345 214 218 243 232 225 221 221 221 215 219 218 223 228 237 226 253 231 247 253 242 223 227 211 205 206 206 204 197
335 334 330 325 322 325 325 333 322 327 275 33 305 37 32 341 20 241 234 285 242 231 222 228 221 218 216 219 224 227 227 231 236 243 259 245 256 228 216 212 203 203 204 203 201
332 330 324 311 316 308 315 316 304 300 282 326 28 1 351 323 47 248 237 281 258 215 222 210 213 212 217 219 219 236 229 224 240 249 259 237 254 224 210 212 208 205 206 205 201
327 325 317 298 294 296 300 309 285 270 285 252 283 268 245 317 29 101 198 259 350 209 227 228 216 216 221 223 222 222 226 233 241 247 248 230 241 211 206 225 218 212 210 206 204
322 318 305 290 294 288 297 291 270 285 219 230 303 281 248 116 108 199 193 202 285 230 212 209 214 216 221 220 219 218 225 233 234 229 238 226 237 217 221 238 229 213 209 209 209
316 309 291 276 275 276 277 270 275 262 251 238 266 235 199 235 336 212 206 237 257 274 244 228 199 212 212 222 213 218 224 233 235 242 255 217 221 187 263 281 232 224 217 218 213
306 293 278 267 260 255 268 261 269 238 254 253 218 239 203 221 293 218 224 242 351 282 264 207 208 196 215 216 221 208 225 240 235 256 236 200 199 203 266 295 244 215 221 217 205
291 280 263 256 242 248 263 277 238 241 247 239 258 265 250 215 231 229 208 199 289 309 230 213 218 204 200 215 218 230 221 215 220 232 224 193 207 180 303 317 260 232 229 222 202
275 270 258 236 243 247 253 249 231 223 235 247 250 238 265 255 257 220 203 196 268 231 236 250 237 181 198 218 207 207 218 227 224 231 227 228 222 263 266 313 287 239 230 211 203
270 258 245 230 238 246 237 235 241 222 226 239 255 268 260 253 235 236 234 256 255 253 249 239 243 204 200 215 217 231 232 196 211 230 229 227 215 237 259 300 309 230 228 221 206
268 256 239 232 237 236 234 233 240 234 233 235 244 265 251 249 251 244 239 236 256 251 260 250 241 234 216 215 219 221 227 235 242 191 233 247 216 222 252 261 331 304 254 223 203
259 247 238 233 238 245 228 232 235 239 242 241 247 262 240 241 246 254 244 239 246 251 259 246 245 254 260 263 210 225 236 230 238 248 255 237 240 240 257 262 288 296 287 242 212
251 246 247 233 230 233 235 240 233 233 237 235 240 248 245 250 247 246 246 237 240 245 250 254 248 251 253 244 236 217 226 227 234 254 263 221 241 251 265 262 275 273 268 231 211
253 250 242 246 236 231 229 235 239 239 232 230 242 233 239 252 256 256 249 248 254 245 250 252 251 245 234 229 232 229 231 226 235 234 242 247 237 252 255 259 262 281 259 226 217
253 248 245 239 237 235 233 235 236 237 237 239 233 235 242 253 254 261 260 253 254 254 254 254 250 243 238 225 233 231 223 232 245 242 245 253 236 242 246 254 256 261 251 249 240